Daggett-Barstow, CA

7:13 AM PDT on October 23, 2017 (GMT -0700)
Barstow-Daggett

Weather History for KDAG - November, 2012

Change the Weather History Date:

Monday, November 5, 2012

  Actual Average Record
Temperature  
Mean Temperature 68 °F 60 °F  
Max Temperature 84 °F 74 °F 87 °F (1950)
Min Temperature 53 °F 47 °F 34 °F (1948)
Degree Days  
Heating Degree Days 0    
Cooling Degree Days 4    
Growing Degree Days 18 (Base 50)    
Moisture  
Dew Point 24 °F    
Average Humidity 20    
Maximum Humidity 27    
Minimum Humidity 13    
Precipitation  
Precipitation 0.00 in 0.01 in 0.74 in (1944)
Month to date precipitation 0.04  
Year to date precipitation 3.19  
Sea Level Pressure  
Sea Level Pressure 30.12 in    
Wind  
Wind Speed 6 mph (WSW)    
Max Wind Speed 12 mph    
Max Gust Speed -    
Visibility 10 miles    
Events      
T = Trace of Precipitation, MM = Missing Value Source: NWS Daily Summary

Daily Weather History Graph

Daily Weather History Graph

Search for Another Location

Airport or City:

Trip Planner

Search our weather history database for the weather conditions in past years. The results will help you decide how hot, cold, wet, or windy it might be!

Date:

Astronomy

Nov. 05, 2012 Rise Set
Actual Time 6:12 AM PST 4:48 PM PST
Civil Twilight 5:45 AM PST 5:15 PM PST
Nautical Twilight 5:15 AM PST 5:45 PM PST
Astronomical Twilight 4:46 AM PST 6:14 PM PST
Moon 10:30 PM PST (11/5) 11:33 AM PST (11/5)
Length of Visible Light 11h 29m
Length of Day
10h 36m
Waning Gibbous, 62% of the Moon is Illuminated
Nov 5
Waning Gibbous
Nov 6
Last Quarter
Nov 13
New
Nov 20
First Quarter
Nov 28
Full

Hourly Weather History & Observations

Time (PST) Temp. Dew Point Humidity Pressure Visibility Wind Dir Wind Speed Gust Speed Precip Events Conditions
12:50 AM 55.9 °F 19.9 °F 25% 30.14 in 10.0 mi West 5.8 mph - N/A   Clear
1:50 AM 55.9 °F 19.9 °F 25% 30.14 in 10.0 mi West 8.1 mph - N/A   Clear
2:50 AM 54.0 °F 19.9 °F 26% 30.14 in 10.0 mi West 3.5 mph - N/A   Clear
3:50 AM 55.0 °F 19.9 °F 25% 30.14 in 10.0 mi West 8.1 mph - N/A   Clear
4:50 AM 55.0 °F 19.9 °F 25% 30.14 in 10.0 mi WNW 9.2 mph - N/A   Clear
5:50 AM 53.1 °F 19.9 °F 27% 30.16 in 10.0 mi West 11.5 mph - N/A   Clear
6:50 AM 55.0 °F 19.9 °F 25% 30.18 in 10.0 mi West 5.8 mph - N/A   Clear
7:50 AM 60.1 °F 21.9 °F 23% 30.20 in 10.0 mi West 8.1 mph - N/A   Clear
8:50 AM 66.9 °F 24.1 °F 20% 30.19 in 10.0 mi West 9.2 mph - N/A   Clear
9:50 AM 73.0 °F 26.1 °F 17% 30.19 in 10.0 mi Calm Calm - N/A   Clear
10:50 AM 79.0 °F 25.0 °F 14% 30.16 in 10.0 mi East 3.5 mph - N/A   Clear
11:50 AM 82.9 °F 27.0 °F 13% 30.12 in 10.0 mi NE 6.9 mph - N/A   Clear
12:50 PM 82.9 °F 28.0 °F 14% 30.10 in 10.0 mi East 5.8 mph - N/A   Clear
1:50 PM 84.0 °F 28.0 °F 13% 30.08 in 10.0 mi East 5.8 mph - N/A   Clear
2:50 PM 84.0 °F 28.0 °F 13% 30.07 in 10.0 mi Calm Calm - N/A   Clear
3:50 PM 82.9 °F 27.0 °F 13% 30.06 in 10.0 mi ESE 3.5 mph - N/A   Clear
4:50 PM 80.1 °F 26.1 °F 14% 30.06 in 10.0 mi SSE 3.5 mph - N/A   Clear
5:50 PM 73.9 °F 25.0 °F 16% 30.08 in 10.0 mi South 3.5 mph - N/A   Clear
6:50 PM 68.0 °F 23.0 °F 18% 30.08 in 10.0 mi Calm Calm - N/A   Clear
7:50 PM 66.0 °F 25.0 °F 21% 30.09 in 10.0 mi WSW 4.6 mph - N/A   Clear
8:50 PM 64.9 °F 24.1 °F 21% 30.09 in 10.0 mi SSW 4.6 mph - N/A   Clear
9:50 PM 59.0 °F 25.0 °F 27% 30.09 in 10.0 mi West 5.8 mph - N/A   Clear
10:50 PM 60.1 °F 24.1 °F 25% 30.08 in 10.0 mi West 6.9 mph - N/A   Clear
11:50 PM 60.1 °F 25.0 °F 26% 30.07 in 10.0 mi West 8.1 mph - N/A   Clear